Year,Month,Day,Hour,Minute,Value (Times are PST for temperature in C)
2013,09,01,00,00,15.80
2013,09,01,00,01,15.80
2013,09,01,00,02,15.80
2013,09,01,00,03,15.80
2013,09,01,00,04,15.80
2013,09,01,00,05,15.80
2013,09,01,00,06,15.80
2013,09,01,00,07,15.80
2013,09,01,00,08,15.80
2013,09,01,00,09,15.80
2013,09,01,00,10,15.80
2013,09,01,00,11,15.80
2013,09,01,00,12,15.90
2013,09,01,00,13,15.90
2013,09,01,00,14,15.90
2013,09,01,00,15,15.90
2013,09,01,00,16,15.90
2013,09,01,00,17,15.90
2013,09,01,00,18,15.90
2013,09,01,00,19,15.80
2013,09,01,00,20,15.80
2013,09,01,00,21,15.80
2013,09,01,00,22,15.80
2013,09,01,00,23,15.80
2013,09,01,00,24,15.70
2013,09,01,00,25,15.70
2013,09,01,00,26,15.70
2013,09,01,00,27,15.70
2013,09,01,00,28,15.70
2013,09,01,00,29,15.70
2013,09,01,00,30,15.70
2013,09,01,00,31,15.80
2013,09,01,00,32,15.80
2013,09,01,00,33,15.80
2013,09,01,00,34,15.80
2013,09,01,00,35,15.80
2013,09,01,00,36,15.80
2013,09,01,00,37,15.80
2013,09,01,00,38,15.80
2013,09,01,00,39,15.80
2013,09,01,00,40,15.80
2013,09,01,00,41,15.80
2013,09,01,00,42,15.70
2013,09,01,00,43,15.70
2013,09,01,00,44,15.70
2013,09,01,00,45,15.60
2013,09,01,00,46,15.60
2013,09,01,00,47,15.60
2013,09,01,00,48,15.50
2013,09,01,00,49,15.50
2013,09,01,00,50,15.40
2013,09,01,00,51,15.40
2013,09,01,00,52,15.30
2013,09,01,00,53,15.30
2013,09,01,00,54,15.30
2013,09,01,00,55,15.20
2013,09,01,00,56,15.10
2013,09,01,00,57,15.10
2013,09,01,00,58,15.00
2013,09,01,00,59,15.00
2013,09,01,01,00,15.00
2013,09,01,01,01,15.00
2013,09,01,01,02,15.00
2013,09,01,01,03,14.90
2013,09,01,01,04,14.90
2013,09,01,01,05,14.90
2013,09,01,01,06,14.80
2013,09,01,01,07,14.80
2013,09,01,01,08,14.80
2013,09,01,01,09,14.80
2013,09,01,01,10,14.90
2013,09,01,01,11,14.80
2013,09,01,01,12,14.90
2013,09,01,01,13,14.80
2013,09,01,01,14,14.80
2013,09,01,01,15,14.80
2013,09,01,01,16,14.80
2013,09,01,01,17,14.70
2013,09,01,01,18,14.70
2013,09,01,01,19,14.70
2013,09,01,01,20,14.70
2013,09,01,01,21,14.70
2013,09,01,01,22,14.70
2013,09,01,01,23,14.70
2013,09,01,01,24,14.70
2013,09,01,01,25,14.80
2013,09,01,01,26,14.80
2013,09,01,01,27,14.80
2013,09,01,01,28,14.80
2013,09,01,01,29,14.80
2013,09,01,01,30,14.80
2013,09,01,01,31,14.80
2013,09,01,01,32,14.80
2013,09,01,01,33,14.80
2013,09,01,01,34,14.90
2013,09,01,01,35,14.90
2013,09,01,01,36,15.00
2013,09,01,01,37,15.00
2013,09,01,01,38,15.00
2013,09,01,01,39,14.90
2013,09,01,01,40,14.90
2013,09,01,01,41,14.90
2013,09,01,01,42,14.90
2013,09,01,01,43,14.90
2013,09,01,01,44,14.90
2013,09,01,01,45,14.90
2013,09,01,01,46,14.90
2013,09,01,01,47,14.90
2013,09,01,01,48,14.90
2013,09,01,01,49,14.90
2013,09,01,01,50,14.90
2013,09,01,01,51,14.90
2013,09,01,01,52,14.90
2013,09,01,01,53,14.90
2013,09,01,01,54,14.90
2013,09,01,01,55,14.90
2013,09,01,01,56,14.90
2013,09,01,01,57,14.90
2013,09,01,01,58,14.90
2013,09,01,01,59,14.90
2013,09,01,02,00,14.90
2013,09,01,02,01,15.00
2013,09,01,02,02,15.00
2013,09,01,02,03,15.00
2013,09,01,02,04,15.00
2013,09,01,02,05,15.00
2013,09,01,02,06,15.00
2013,09,01,02,07,15.00
2013,09,01,02,08,14.90
2013,09,01,02,09,14.90
2013,09,01,02,10,14.90
2013,09,01,02,11,14.90
2013,09,01,02,12,14.80
2013,09,01,02,13,14.80
2013,09,01,02,14,14.80
2013,09,01,02,15,14.80
2013,09,01,02,16,14.90
2013,09,01,02,17,14.90
2013,09,01,02,18,14.90
2013,09,01,02,19,14.90
2013,09,01,02,20,14.80
2013,09,01,02,21,14.80
2013,09,01,02,22,14.80
2013,09,01,02,23,14.80
2013,09,01,02,24,14.70
2013,09,01,02,25,14.70
2013,09,01,02,26,14.60
2013,09,01,02,27,14.60
2013,09,01,02,28,14.50
2013,09,01,02,29,14.50
2013,09,01,02,30,14.40
2013,09,01,02,31,14.40
2013,09,01,02,32,14.30
2013,09,01,02,33,14.30
2013,09,01,02,34,14.30
2013,09,01,02,35,14.20
2013,09,01,02,36,14.20
2013,09,01,02,37,14.20
2013,09,01,02,38,14.30
2013,09,01,02,39,14.30
2013,09,01,02,40,14.30
2013,09,01,02,41,14.30
2013,09,01,02,42,14.30
2013,09,01,02,43,14.30
2013,09,01,02,44,14.30
2013,09,01,02,45,14.30
2013,09,01,02,46,14.30
2013,09,01,02,47,14.30
2013,09,01,02,48,14.30
2013,09,01,02,49,14.30
2013,09,01,02,50,14.30
2013,09,01,02,51,14.30
2013,09,01,02,52,14.30
2013,09,01,02,53,14.30
2013,09,01,02,54,14.30
2013,09,01,02,55,14.40
2013,09,01,02,56,14.40
2013,09,01,02,57,14.40
2013,09,01,02,58,14.40
2013,09,01,02,59,14.40
2013,09,01,03,00,14.40
2013,09,01,03,01,14.40
2013,09,01,03,02,14.40
2013,09,01,03,03,14.40
2013,09,01,03,04,14.40
2013,09,01,03,05,14.40
2013,09,01,03,06,14.40
2013,09,01,03,07,14.40
2013,09,01,03,08,14.40
2013,09,01,03,09,14.40
2013,09,01,03,10,14.40
2013,09,01,03,11,14.40
2013,09,01,03,12,14.40
2013,09,01,03,13,14.40
2013,09,01,03,14,14.40
2013,09,01,03,15,14.30
2013,09,01,03,16,14.30
2013,09,01,03,17,14.30
2013,09,01,03,18,14.20
2013,09,01,03,19,14.20
2013,09,01,03,20,14.20
2013,09,01,03,21,14.20
2013,09,01,03,22,14.20
2013,09,01,03,23,14.20
2013,09,01,03,24,14.20
2013,09,01,03,25,14.20
2013,09,01,03,26,14.20
2013,09,01,03,27,14.20
2013,09,01,03,28,14.20
2013,09,01,03,29,14.30
2013,09,01,03,30,14.30
2013,09,01,03,31,14.30
2013,09,01,03,32,14.30
2013,09,01,03,33,14.30
2013,09,01,03,34,14.30
2013,09,01,03,35,14.20
2013,09,01,03,36,14.20
2013,09,01,03,37,14.20
2013,09,01,03,38,14.10
2013,09,01,03,39,14.10
2013,09,01,03,40,14.10
2013,09,01,03,41,14.00
2013,09,01,03,42,14.00
2013,09,01,03,43,13.90
2013,09,01,03,44,13.90
2013,09,01,03,45,13.90
2013,09,01,03,46,13.90
2013,09,01,03,47,13.80
2013,09,01,03,48,13.80
2013,09,01,03,49,13.80
2013,09,01,03,50,13.80
2013,09,01,03,51,13.80
2013,09,01,03,52,13.80
2013,09,01,03,53,13.80
2013,09,01,03,54,13.80
2013,09,01,03,55,13.80
2013,09,01,03,56,13.90
2013,09,01,03,57,13.90
2013,09,01,03,58,13.90
2013,09,01,03,59,13.90
2013,09,01,04,00,14.00
2013,09,01,04,01,14.00
2013,09,01,04,02,14.10
2013,09,01,04,03,14.10
2013,09,01,04,04,14.10
2013,09,01,04,05,14.20
2013,09,01,04,06,14.20
2013,09,01,04,07,14.20
2013,09,01,04,08,14.20
2013,09,01,04,09,14.20
2013,09,01,04,10,14.20
2013,09,01,04,11,14.20
2013,09,01,04,12,14.20
2013,09,01,04,13,14.20
2013,09,01,04,14,14.10
2013,09,01,04,15,14.10
2013,09,01,04,16,14.20
2013,09,01,04,17,14.20
2013,09,01,04,18,14.20
2013,09,01,04,19,14.10
2013,09,01,04,20,14.10
2013,09,01,04,21,14.10
2013,09,01,04,22,14.10
2013,09,01,04,23,14.10
2013,09,01,04,24,14.10
2013,09,01,04,25,14.00
2013,09,01,04,26,14.00
2013,09,01,04,27,13.90
2013,09,01,04,28,13.90
2013,09,01,04,29,13.80
2013,09,01,04,30,13.80
2013,09,01,04,31,13.80
2013,09,01,04,32,13.80
2013,09,01,04,33,13.80
2013,09,01,04,34,13.80
2013,09,01,04,35,13.80
2013,09,01,04,36,13.80
2013,09,01,04,37,13.80
2013,09,01,04,38,13.80
2013,09,01,04,39,13.80
2013,09,01,04,40,13.80
2013,09,01,04,41,13.80
2013,09,01,04,42,13.80
2013,09,01,04,43,13.90
2013,09,01,04,44,13.80
2013,09,01,04,45,13.80
2013,09,01,04,46,13.80
2013,09,01,04,47,13.80
2013,09,01,04,48,13.80
2013,09,01,04,49,13.80
2013,09,01,04,50,13.80
2013,09,01,04,51,13.80
2013,09,01,04,52,13.80
2013,09,01,04,53,13.90
2013,09,01,04,54,13.80
2013,09,01,04,55,13.80
2013,09,01,04,56,13.80
2013,09,01,04,57,13.70
2013,09,01,04,58,13.70
2013,09,01,04,59,13.70
2013,09,01,05,00,13.70
2013,09,01,05,01,13.70
2013,09,01,05,02,13.60
2013,09,01,05,03,13.50
2013,09,01,05,04,13.50
2013,09,01,05,05,13.40
2013,09,01,05,06,13.40
2013,09,01,05,07,13.40
2013,09,01,05,08,13.50
2013,09,01,05,09,13.50
2013,09,01,05,10,13.50
2013,09,01,05,11,13.50
2013,09,01,05,12,13.60
2013,09,01,05,13,13.60
2013,09,01,05,14,13.60
2013,09,01,05,15,13.70
2013,09,01,05,16,13.70
2013,09,01,05,17,13.70
2013,09,01,05,18,13.70
2013,09,01,05,19,13.70
2013,09,01,05,20,13.70
2013,09,01,05,21,13.70
2013,09,01,05,22,13.70
2013,09,01,05,23,13.80
2013,09,01,05,24,13.80
2013,09,01,05,25,13.80
2013,09,01,05,26,13.80
2013,09,01,05,27,13.80
2013,09,01,05,28,13.80
2013,09,01,05,29,13.80
2013,09,01,05,30,13.70
2013,09,01,05,31,13.70
2013,09,01,05,32,13.60
2013,09,01,05,33,13.60
2013,09,01,05,34,13.60
2013,09,01,05,35,13.50
2013,09,01,05,36,13.40
2013,09,01,05,37,13.40
2013,09,01,05,38,13.40
2013,09,01,05,39,13.40
2013,09,01,05,40,13.40
2013,09,01,05,41,13.40
2013,09,01,05,42,13.40
2013,09,01,05,43,13.30
2013,09,01,05,44,13.30
2013,09,01,05,45,13.30
2013,09,01,05,46,13.30
2013,09,01,05,47,13.30
2013,09,01,05,48,13.30
2013,09,01,05,49,13.30
2013,09,01,05,50,13.30
2013,09,01,05,51,13.30
2013,09,01,05,52,13.30
2013,09,01,05,53,13.30
2013,09,01,05,54,13.30
2013,09,01,05,55,13.30
2013,09,01,05,56,13.30
2013,09,01,05,57,13.30
2013,09,01,05,58,13.30
2013,09,01,05,59,13.30
2013,09,01,06,00,13.40
2013,09,01,06,01,13.40
2013,09,01,06,02,13.40
2013,09,01,06,03,13.40
2013,09,01,06,04,13.40
2013,09,01,06,05,13.40
2013,09,01,06,06,13.40
2013,09,01,06,07,13.40
2013,09,01,06,08,13.40
2013,09,01,06,09,13.40
2013,09,01,06,10,13.40
2013,09,01,06,11,13.40
2013,09,01,06,12,13.40
2013,09,01,06,13,13.40
2013,09,01,06,14,13.40
2013,09,01,06,15,13.40
2013,09,01,06,16,13.40
2013,09,01,06,17,13.40
2013,09,01,06,18,13.40
2013,09,01,06,19,13.40
2013,09,01,06,20,13.30
2013,09,01,06,21,13.40
2013,09,01,06,22,13.30
2013,09,01,06,23,13.30
2013,09,01,06,24,13.30
2013,09,01,06,25,13.30
2013,09,01,06,26,13.30
2013,09,01,06,27,13.20
2013,09,01,06,28,13.20
2013,09,01,06,29,13.20
2013,09,01,06,30,13.20
2013,09,01,06,31,13.20
2013,09,01,06,32,13.20
2013,09,01,06,33,13.20
2013,09,01,06,34,13.20
2013,09,01,06,35,13.20
2013,09,01,06,36,13.20
2013,09,01,06,37,13.30
2013,09,01,06,38,13.30
2013,09,01,06,39,13.30
2013,09,01,06,40,13.30
2013,09,01,06,41,13.30
2013,09,01,06,42,13.30
2013,09,01,06,43,13.30
2013,09,01,06,44,13.30
2013,09,01,06,45,13.30
2013,09,01,06,46,13.30
2013,09,01,06,47,13.30
2013,09,01,06,48,13.30
2013,09,01,06,49,13.30
2013,09,01,06,50,13.40
2013,09,01,06,51,13.40
2013,09,01,06,52,13.40
2013,09,01,06,53,13.40
2013,09,01,06,54,13.50
2013,09,01,06,55,13.50
2013,09,01,06,56,13.50
2013,09,01,06,57,13.60
2013,09,01,06,58,13.60
2013,09,01,06,59,13.60
2013,09,01,07,00,13.60
2013,09,01,07,01,13.60
2013,09,01,07,02,13.60
2013,09,01,07,03,13.60
2013,09,01,07,04,13.70
2013,09,01,07,05,13.70
2013,09,01,07,06,13.70
2013,09,01,07,07,13.80
2013,09,01,07,08,13.80
2013,09,01,07,09,13.80
2013,09,01,07,10,13.90
2013,09,01,07,11,14.00
2013,09,01,07,12,14.00
2013,09,01,07,13,14.10
2013,09,01,07,14,14.20
2013,09,01,07,15,14.20
2013,09,01,07,16,14.30
2013,09,01,07,17,14.40
2013,09,01,07,18,14.40
2013,09,01,07,19,14.50
2013,09,01,07,20,14.60
2013,09,01,07,21,14.70
2013,09,01,07,22,14.70
2013,09,01,07,23,14.70
2013,09,01,07,24,14.70
2013,09,01,07,25,14.70
2013,09,01,07,26,14.80
2013,09,01,07,27,14.80
2013,09,01,07,28,14.80
2013,09,01,07,29,14.80
2013,09,01,07,30,14.80
2013,09,01,07,31,14.80
2013,09,01,07,32,14.90
2013,09,01,07,33,14.90
2013,09,01,07,34,15.00
2013,09,01,07,35,15.00
2013,09,01,07,36,15.00
2013,09,01,07,37,15.00
2013,09,01,07,38,15.00
2013,09,01,07,39,15.00
2013,09,01,07,40,15.00
2013,09,01,07,41,15.00
2013,09,01,07,42,15.00
2013,09,01,07,43,15.00
2013,09,01,07,44,15.00
2013,09,01,07,45,15.00
2013,09,01,07,46,15.00
2013,09,01,07,47,15.00
2013,09,01,07,48,15.00
2013,09,01,07,49,15.10
2013,09,01,07,50,15.20
2013,09,01,07,51,15.30
2013,09,01,07,52,15.30
2013,09,01,07,53,15.40
2013,09,01,07,54,15.50
2013,09,01,07,55,15.60
2013,09,01,07,56,15.70
2013,09,01,07,57,15.90
2013,09,01,07,58,16.00
2013,09,01,07,59,16.10
2013,09,01,08,00,16.20
2013,09,01,08,01,16.40
2013,09,01,08,02,16.50
2013,09,01,08,03,16.60
2013,09,01,08,04,16.70
2013,09,01,08,05,16.80
2013,09,01,08,06,16.90
2013,09,01,08,07,17.00
2013,09,01,08,08,17.10
2013,09,01,08,09,17.20
2013,09,01,08,10,17.30
2013,09,01,08,11,17.40
2013,09,01,08,12,17.50
2013,09,01,08,13,17.60
2013,09,01,08,14,17.70
2013,09,01,08,15,17.80
2013,09,01,08,16,17.80
2013,09,01,08,17,17.90
2013,09,01,08,18,17.90
2013,09,01,08,19,18.00
2013,09,01,08,20,18.00
2013,09,01,08,21,18.10
2013,09,01,08,22,18.20
2013,09,01,08,23,18.20
2013,09,01,08,24,18.30
2013,09,01,08,25,18.30
2013,09,01,08,26,18.40
2013,09,01,08,27,18.40
2013,09,01,08,28,18.50
2013,09,01,08,29,18.50
2013,09,01,08,30,18.50
2013,09,01,08,31,18.60
2013,09,01,08,32,18.60
2013,09,01,08,33,18.60
2013,09,01,08,34,18.60
2013,09,01,08,35,18.70
2013,09,01,08,36,18.70
2013,09,01,08,37,18.70
2013,09,01,08,38,18.70
2013,09,01,08,39,18.70
2013,09,01,08,40,18.70
2013,09,01,08,41,18.70
2013,09,01,08,42,18.70
2013,09,01,08,43,18.60
2013,09,01,08,44,18.50
2013,09,01,08,45,18.50
2013,09,01,08,46,18.50
2013,09,01,08,47,18.40
2013,09,01,08,48,18.40
2013,09,01,08,49,18.40
2013,09,01,08,50,18.40
2013,09,01,08,51,18.40
2013,09,01,08,52,18.40
2013,09,01,08,53,18.40
2013,09,01,08,54,18.40
2013,09,01,08,55,18.40
2013,09,01,08,56,18.40
2013,09,01,08,57,18.50
2013,09,01,08,58,18.60
2013,09,01,08,59,18.60
2013,09,01,09,00,18.70
2013,09,01,09,01,18.80
2013,09,01,09,02,18.80
2013,09,01,09,03,18.80
2013,09,01,09,04,18.90
2013,09,01,09,05,18.90
2013,09,01,09,06,19.00
2013,09,01,09,07,19.00
2013,09,01,09,08,19.10
2013,09,01,09,09,19.10
2013,09,01,09,10,19.10
2013,09,01,09,11,19.10
2013,09,01,09,12,19.20
2013,09,01,09,13,19.30
2013,09,01,09,14,19.40
2013,09,01,09,15,19.40
2013,09,01,09,16,19.40
2013,09,01,09,17,19.40
2013,09,01,09,18,19.40
2013,09,01,09,19,19.40
2013,09,01,09,20,19.40
2013,09,01,09,21,19.40
2013,09,01,09,22,19.40
2013,09,01,09,23,19.40
2013,09,01,09,24,19.30
2013,09,01,09,25,19.30
2013,09,01,09,26,19.30
2013,09,01,09,27,19.30
2013,09,01,09,28,19.20
2013,09,01,09,29,19.10
2013,09,01,09,30,19.00
2013,09,01,09,31,18.90
2013,09,01,09,32,18.90
2013,09,01,09,33,18.90
2013,09,01,09,34,19.00
2013,09,01,09,35,18.90
2013,09,01,09,36,18.90
2013,09,01,09,37,18.90
2013,09,01,09,38,18.90
2013,09,01,09,39,19.00
2013,09,01,09,40,19.10
2013,09,01,09,41,19.10
2013,09,01,09,42,19.20
2013,09,01,09,43,19.20
2013,09,01,09,44,19.20
2013,09,01,09,45,19.30
2013,09,01,09,46,19.30
2013,09,01,09,47,19.40
2013,09,01,09,48,19.50
2013,09,01,09,49,19.60
2013,09,01,09,50,19.70
2013,09,01,09,51,19.80
2013,09,01,09,52,19.90
2013,09,01,09,53,20.00
2013,09,01,09,54,20.10
2013,09,01,09,55,20.20
2013,09,01,09,56,20.20
2013,09,01,09,57,20.20
2013,09,01,09,58,20.20
2013,09,01,09,59,20.20
2013,09,01,10,00,20.10
2013,09,01,10,01,20.00
2013,09,01,10,02,19.90
2013,09,01,10,03,19.90
2013,09,01,10,04,19.90
2013,09,01,10,05,20.00
2013,09,01,10,06,20.00
2013,09,01,10,07,20.10
2013,09,01,10,08,20.10
2013,09,01,10,09,20.10
2013,09,01,10,10,20.10
2013,09,01,10,11,20.10
2013,09,01,10,12,20.10
2013,09,01,10,13,20.20
2013,09,01,10,14,20.30
2013,09,01,10,15,20.40
2013,09,01,10,16,20.40
2013,09,01,10,17,20.30
2013,09,01,10,18,20.30
2013,09,01,10,19,20.20
2013,09,01,10,20,20.20
2013,09,01,10,21,20.20
2013,09,01,10,22,20.20
2013,09,01,10,23,20.20
2013,09,01,10,24,20.20
2013,09,01,10,25,20.20
2013,09,01,10,26,20.30
2013,09,01,10,27,20.40
2013,09,01,10,28,20.50
2013,09,01,10,29,20.50
2013,09,01,10,30,20.50
2013,09,01,10,31,20.50
2013,09,01,10,32,20.60
2013,09,01,10,33,20.60
2013,09,01,10,34,20.60
2013,09,01,10,35,20.60
2013,09,01,10,36,20.60
2013,09,01,10,37,20.60
2013,09,01,10,38,20.60
2013,09,01,10,39,20.60
2013,09,01,10,40,20.60
2013,09,01,10,41,20.50
2013,09,01,10,42,20.50
2013,09,01,10,43,20.50
2013,09,01,10,44,20.40
2013,09,01,10,45,20.30
2013,09,01,10,46,20.20
2013,09,01,10,47,20.20
2013,09,01,10,48,20.20
2013,09,01,10,49,20.10
2013,09,01,10,50,20.20
2013,09,01,10,51,20.10
2013,09,01,10,52,20.10
2013,09,01,10,53,20.10
2013,09,01,10,54,20.10
2013,09,01,10,55,20.20
2013,09,01,10,56,20.20
2013,09,01,10,57,20.30
2013,09,01,10,58,20.30
2013,09,01,10,59,20.20
2013,09,01,11,00,20.10
2013,09,01,11,01,20.10
2013,09,01,11,02,20.10
2013,09,01,11,03,20.10
2013,09,01,11,04,20.10
2013,09,01,11,05,20.00
2013,09,01,11,06,19.90
2013,09,01,11,07,19.90
2013,09,01,11,08,19.80
2013,09,01,11,09,19.80
2013,09,01,11,10,19.70
2013,09,01,11,11,19.70
2013,09,01,11,12,19.60
2013,09,01,11,13,19.60
2013,09,01,11,14,19.60
2013,09,01,11,15,19.60
2013,09,01,11,16,19.70
2013,09,01,11,17,19.70
2013,09,01,11,18,19.70
2013,09,01,11,19,19.70
2013,09,01,11,20,19.60
2013,09,01,11,21,19.70
2013,09,01,11,22,19.80
2013,09,01,11,23,19.90
2013,09,01,11,24,19.90
2013,09,01,11,25,19.90
2013,09,01,11,26,19.90
2013,09,01,11,27,19.90
2013,09,01,11,28,19.80
2013,09,01,11,29,19.80
2013,09,01,11,30,19.90
2013,09,01,11,31,19.90
2013,09,01,11,32,19.90
2013,09,01,11,33,19.90
2013,09,01,11,34,20.00
2013,09,01,11,35,20.20
2013,09,01,11,36,20.30
2013,09,01,11,37,20.30
2013,09,01,11,38,20.40
2013,09,01,11,39,20.40
2013,09,01,11,40,20.40
2013,09,01,11,41,20.40
2013,09,01,11,42,20.50
2013,09,01,11,43,20.60
2013,09,01,11,44,20.50
2013,09,01,11,45,20.50
2013,09,01,11,46,20.50
2013,09,01,11,47,20.50
2013,09,01,11,48,20.60
2013,09,01,11,49,20.60
2013,09,01,11,50,20.70
2013,09,01,11,51,20.80
2013,09,01,11,52,20.80
2013,09,01,11,53,20.90
2013,09,01,11,54,20.90
2013,09,01,11,55,20.90
2013,09,01,11,56,20.90
2013,09,01,11,57,20.90
2013,09,01,11,58,20.90
2013,09,01,11,59,20.90
2013,09,01,12,00,20.90
2013,09,01,12,01,20.90
2013,09,01,12,02,21.00
2013,09,01,12,03,21.00
2013,09,01,12,04,21.00
2013,09,01,12,05,21.00
2013,09,01,12,06,20.90
2013,09,01,12,07,20.90
2013,09,01,12,08,20.90
2013,09,01,12,09,21.00
2013,09,01,12,10,21.00
2013,09,01,12,11,20.90
2013,09,01,12,12,20.80
2013,09,01,12,13,20.80
2013,09,01,12,14,20.80
2013,09,01,12,15,20.90
2013,09,01,12,16,21.00
2013,09,01,12,17,21.00
2013,09,01,12,18,21.00
2013,09,01,12,19,21.00
2013,09,01,12,20,20.90
2013,09,01,12,21,21.00
2013,09,01,12,22,21.00
2013,09,01,12,23,21.10
2013,09,01,12,24,21.20
2013,09,01,12,25,21.20
2013,09,01,12,26,21.20
2013,09,01,12,27,21.30
2013,09,01,12,28,21.30
2013,09,01,12,29,21.30
2013,09,01,12,30,21.30
2013,09,01,12,31,21.40
2013,09,01,12,32,21.40
2013,09,01,12,33,21.40
2013,09,01,12,34,21.40
2013,09,01,12,35,21.50
2013,09,01,12,36,21.60
2013,09,01,12,37,21.60
2013,09,01,12,38,21.70
2013,09,01,12,39,21.70
2013,09,01,12,40,21.70
2013,09,01,12,41,21.70
2013,09,01,12,42,21.80
2013,09,01,12,43,21.80
2013,09,01,12,44,21.80
2013,09,01,12,45,21.80
2013,09,01,12,46,21.80
2013,09,01,12,47,21.80
2013,09,01,12,48,21.80
2013,09,01,12,49,21.80
2013,09,01,12,50,21.60
2013,09,01,12,51,21.60
2013,09,01,12,52,21.70
2013,09,01,12,53,21.80
2013,09,01,12,54,21.80
2013,09,01,12,55,21.90
2013,09,01,12,56,21.90
2013,09,01,12,57,21.90
2013,09,01,12,58,21.90
2013,09,01,12,59,21.80
2013,09,01,13,00,21.80
2013,09,01,13,01,21.70
2013,09,01,13,02,21.70
2013,09,01,13,03,21.70
2013,09,01,13,04,21.80
2013,09,01,13,05,21.70
2013,09,01,13,06,21.70
2013,09,01,13,07,21.70
2013,09,01,13,08,21.70
2013,09,01,13,09,21.60
2013,09,01,13,10,21.60
2013,09,01,13,11,21.60
2013,09,01,13,12,21.60
2013,09,01,13,13,21.60
2013,09,01,13,14,21.60
2013,09,01,13,15,21.60
2013,09,01,13,16,21.60
2013,09,01,13,17,21.70
2013,09,01,13,18,21.80
2013,09,01,13,19,21.80
2013,09,01,13,20,21.80
2013,09,01,13,21,21.80
2013,09,01,13,22,21.90
2013,09,01,13,23,21.90
2013,09,01,13,24,21.90
2013,09,01,13,25,22.00
2013,09,01,13,26,22.10
2013,09,01,13,27,22.10
2013,09,01,13,28,22.10
2013,09,01,13,29,22.00
2013,09,01,13,30,22.00
2013,09,01,13,31,22.00
2013,09,01,13,32,22.10
2013,09,01,13,33,22.20
2013,09,01,13,34,22.10
2013,09,01,13,35,22.20
2013,09,01,13,36,22.30
2013,09,01,13,37,22.40
2013,09,01,13,38,22.50
2013,09,01,13,39,22.50
2013,09,01,13,40,22.50
2013,09,01,13,41,22.40
2013,09,01,13,42,22.40
2013,09,01,13,43,22.30
2013,09,01,13,44,22.20
2013,09,01,13,45,22.20
2013,09,01,13,46,22.20
2013,09,01,13,47,22.20
2013,09,01,13,48,22.30
2013,09,01,13,49,22.30
2013,09,01,13,50,22.30
2013,09,01,13,51,22.20
2013,09,01,13,52,22.20
2013,09,01,13,53,22.30
2013,09,01,13,54,22.30
2013,09,01,13,55,22.30
2013,09,01,13,56,22.30
2013,09,01,13,57,22.30
2013,09,01,13,58,22.40
2013,09,01,13,59,22.50
2013,09,01,14,00,22.60
2013,09,01,14,01,22.70
2013,09,01,14,02,22.80
2013,09,01,14,03,22.90
2013,09,01,14,04,23.00
2013,09,01,14,05,23.00
2013,09,01,14,06,23.00
2013,09,01,14,07,22.90
2013,09,01,14,08,22.90
2013,09,01,14,09,22.80
2013,09,01,14,10,22.80
2013,09,01,14,11,22.80
2013,09,01,14,12,22.80
2013,09,01,14,13,22.80
2013,09,01,14,14,22.80
2013,09,01,14,15,22.90
2013,09,01,14,16,22.90
2013,09,01,14,17,22.90
2013,09,01,14,18,22.80
2013,09,01,14,19,22.80
2013,09,01,14,20,22.90
2013,09,01,14,21,22.90
2013,09,01,14,22,23.00
2013,09,01,14,23,23.00
2013,09,01,14,24,23.10
2013,09,01,14,25,23.10
2013,09,01,14,26,23.00
2013,09,01,14,27,22.90
2013,09,01,14,28,22.90
2013,09,01,14,29,22.90
2013,09,01,14,30,23.00
2013,09,01,14,31,23.00
2013,09,01,14,32,23.10
2013,09,01,14,33,23.00
2013,09,01,14,34,23.00
2013,09,01,14,35,22.90
2013,09,01,14,36,22.90
2013,09,01,14,37,22.80
2013,09,01,14,38,22.80
2013,09,01,14,39,22.80
2013,09,01,14,40,22.80
2013,09,01,14,41,22.80
2013,09,01,14,42,22.70
2013,09,01,14,43,22.70
2013,09,01,14,44,22.80
2013,09,01,14,45,22.80
2013,09,01,14,46,22.80
2013,09,01,14,47,22.80
2013,09,01,14,48,22.90
2013,09,01,14,49,23.00
2013,09,01,14,50,23.10
2013,09,01,14,51,23.20
2013,09,01,14,52,23.10
2013,09,01,14,53,22.90
2013,09,01,14,54,22.80
2013,09,01,14,55,22.80
2013,09,01,14,56,22.80
2013,09,01,14,57,22.80
2013,09,01,14,58,22.80
2013,09,01,14,59,22.70
2013,09,01,15,00,22.60
2013,09,01,15,01,22.60
2013,09,01,15,02,22.60
2013,09,01,15,03,22.70
2013,09,01,15,04,22.80
2013,09,01,15,05,22.90
2013,09,01,15,06,22.90
2013,09,01,15,07,22.90
2013,09,01,15,08,22.90
2013,09,01,15,09,22.90
2013,09,01,15,10,22.90
2013,09,01,15,11,22.90
2013,09,01,15,12,22.80
2013,09,01,15,13,22.80
2013,09,01,15,14,22.80
2013,09,01,15,15,22.70
2013,09,01,15,16,22.70
2013,09,01,15,17,22.70
2013,09,01,15,18,22.70
2013,09,01,15,19,22.70
2013,09,01,15,20,22.70
2013,09,01,15,21,22.70
2013,09,01,15,22,22.70
2013,09,01,15,23,22.60
2013,09,01,15,24,22.60
2013,09,01,15,25,22.60
2013,09,01,15,26,22.60
2013,09,01,15,27,22.60
2013,09,01,15,28,22.60
2013,09,01,15,29,22.60
2013,09,01,15,30,22.50
2013,09,01,15,31,22.40
2013,09,01,15,32,22.40
2013,09,01,15,33,22.50
2013,09,01,15,34,22.50
2013,09,01,15,35,22.50
2013,09,01,15,36,22.50
2013,09,01,15,37,22.50
2013,09,01,15,38,22.60
2013,09,01,15,39,22.70
2013,09,01,15,40,22.70
2013,09,01,15,41,22.80
2013,09,01,15,42,22.90
2013,09,01,15,43,22.90
2013,09,01,15,44,22.90
2013,09,01,15,45,22.90
2013,09,01,15,46,22.90
2013,09,01,15,47,22.90
2013,09,01,15,48,22.90
2013,09,01,15,49,22.90
2013,09,01,15,50,22.90
2013,09,01,15,51,23.00
2013,09,01,15,52,23.00
2013,09,01,15,53,23.00
2013,09,01,15,54,22.90
2013,09,01,15,55,22.90
2013,09,01,15,56,22.90
2013,09,01,15,57,23.00
2013,09,01,15,58,23.10
2013,09,01,15,59,23.10
2013,09,01,16,00,23.10
2013,09,01,16,01,23.10
2013,09,01,16,02,23.10
2013,09,01,16,03,23.10
2013,09,01,16,04,23.10
2013,09,01,16,05,23.20
2013,09,01,16,06,23.20
2013,09,01,16,07,23.30
2013,09,01,16,08,23.30
2013,09,01,16,09,23.20
2013,09,01,16,10,23.20
2013,09,01,16,11,23.10
2013,09,01,16,12,23.10
2013,09,01,16,13,23.10
2013,09,01,16,14,23.10
2013,09,01,16,15,23.10
2013,09,01,16,16,23.10
2013,09,01,16,17,23.00
2013,09,01,16,18,23.00
2013,09,01,16,19,23.00
2013,09,01,16,20,22.90
2013,09,01,16,21,22.90
2013,09,01,16,22,23.00
2013,09,01,16,23,23.00
2013,09,01,16,24,23.10
2013,09,01,16,25,23.20
2013,09,01,16,26,23.30
2013,09,01,16,27,23.30
2013,09,01,16,28,23.30
2013,09,01,16,29,23.40
2013,09,01,16,30,23.40
2013,09,01,16,31,23.40
2013,09,01,16,32,23.40
2013,09,01,16,33,23.40
2013,09,01,16,34,23.40
2013,09,01,16,35,23.40
2013,09,01,16,36,23.30
2013,09,01,16,37,23.30
2013,09,01,16,38,23.30
2013,09,01,16,39,23.30
2013,09,01,16,40,23.30
2013,09,01,16,41,23.30
2013,09,01,16,42,23.30
2013,09,01,16,43,23.30
2013,09,01,16,44,23.20
2013,09,01,16,45,23.10
2013,09,01,16,46,23.10
2013,09,01,16,47,23.10
2013,09,01,16,48,23.00
2013,09,01,16,49,22.90
2013,09,01,16,50,22.90
2013,09,01,16,51,22.90
2013,09,01,16,52,22.80
2013,09,01,16,53,22.80
2013,09,01,16,54,22.80
2013,09,01,16,55,22.80
2013,09,01,16,56,22.80
2013,09,01,16,57,22.70
2013,09,01,16,58,22.70
2013,09,01,16,59,22.70
2013,09,01,17,00,22.70
2013,09,01,17,01,22.70
2013,09,01,17,02,22.80
2013,09,01,17,03,22.80
2013,09,01,17,04,22.80
2013,09,01,17,05,22.80
2013,09,01,17,06,22.90
2013,09,01,17,07,22.90
2013,09,01,17,08,22.90
2013,09,01,17,09,23.00
2013,09,01,17,10,23.00
2013,09,01,17,11,23.00
2013,09,01,17,12,23.00
2013,09,01,17,13,22.90
2013,09,01,17,14,22.90
2013,09,01,17,15,22.90
2013,09,01,17,16,23.00
2013,09,01,17,17,23.00
2013,09,01,17,18,23.10
2013,09,01,17,19,23.10